Flag for Switzerland Weather past 2 weeks in Montreux, Vaud, Switzerland

Now
68 °F

Passing clouds.


Feels Like: 68 °F
Forecast: 40 / 66 °F
Wind: 6 mph from Northwest

Location: Aigle

Current Time: Oct 2, 2014 at 6:09:51 PM

Latest Report: Oct 2, 2014 at 5:00 PM


Visibility: 10 mi

Pressure: 30.23 "Hg

Humidity: 66%

Dew point: 56 °F

Location of MontreuxLocation

Historic Weather in Montreux — Graph

°F

Montreux temperature yesterday

Maximum temperature yesterday: 69 °F (at 3:00 PM)
Minimum temperature yesterday: 52 °F (at 6:00 AM)
Average temperature yesterday: 60 °F

Past Weeks' High & Low Weather Summary

 TemperatureHumidityPressure
High72 °F (Sep 18, 6:00 PM)99% (Oct 1, 6:00 AM)30.34 "Hg (Oct 1, 6:00 AM)
Low44 °F (Sep 26, 5:00 AM)52% (Sep 22, 4:00 PM)29.83 "Hg (Sep 17, 4:00 PM)
Average59 °F83%30.14 "Hg
* Reported Sep 17 4:00 PM — Oct 2 4:00 PM, Montreux, Weather by CustomWeather, © 2014

Note: Actual official high and low records may vary slightly from our data, if they occured in-between our weather recording intervals... More about our weather records

Advertising

Montreux weather history for previous 24 hours

 ConditionsComfort  
Time TempWeatherWind HumidityBarometerVisibility
4:00 PM
Oct 2
67 °FMild.10 mph66%30.24 "HgN/A
3:00 PM67 °FMild.8 mph66%30.24 "HgN/A
2:00 PM66 °FPassing clouds.9 mph72%30.26 "Hg11 mi
1:00 PM65 °FMild.10 mph70%30.28 "HgN/A
12:00 PM63 °FMild.8 mph77%30.30 "HgN/A
11:00 AM62 °FCool.6 mph79%30.32 "HgN/A
10:00 AM58 °FCool.1 mph81%30.33 "HgN/A
9:00 AM53 °FCool.No wind95%30.34 "HgN/A
8:00 AM47 °FCool.No wind99%30.34 "HgN/A
7:00 AM50 °FCool.1 mph97%30.33 "HgN/A
6:00 AM49 °FCool.1 mph97%30.33 "HgN/A
5:00 AM51 °FFog.1 mph97%30.32 "Hg9 mi
4:00 AM51 °FCool.1 mph97%30.32 "HgN/A
3:00 AM52 °FCool.2 mph97%30.33 "HgN/A
2:00 AM52 °FCool.2 mph96%30.33 "HgN/A
1:00 AM53 °FCool.1 mph96%30.33 "HgN/A
12:00 AM52 °FCool.1 mph97%30.33 "HgN/A
11:00 PM
Oct 1
55 °FCool.2 mph95%30.32 "HgN/A
10:00 PM55 °FCool.No wind96%30.31 "HgN/A
9:00 PM57 °FCool.1 mph95%30.30 "HgN/A
8:00 PM59 °FPassing clouds.1 mph92%30.28 "Hg12 mi
7:00 PM63 °FMild.2 mph82%30.26 "HgN/A
6:00 PM67 °FMild.2 mph69%30.24 "HgN/A
Weather by CustomWeather, © 2014

See weather overviewHow to use our weather pages